EHI
0 0 0 0 0 0 0 0 0 0 0 0 0 0 0 0 0 0 0 0 0 0 0 0 0 0 0 0 0 0 0 0 0 0 0 0 0 0 0 0 0 0 0 0
0 0 0 0 0 0 0 0 0 0 0 0 0 0 0 0 0 0 0 0 0 0 0 0 0 0 0 0 0 0 0 0 0 0 0 0 0 0 0 0 0 0 0 0
0 0 0 0 0 0 0 0 0 0 0 0 0 0 0 0 0 0 0 0 0 0 0 0 0 0 0 0 0 0 0 0 0 0 0 0 0 0 0 0 0 0 0 0
0 0 0 0 0 0 0 0 0 0 0 0 0 0 0 0 0 0 0 0 0 0 0 0 0 0 0 0 0 0 0 0 0 0 0 0 0 0 0 0 0 0 0 0
0 0 0 0 0 0 0 0 0 0 0 0 0 0 0 0 0 0 0 0 0 0 0 0 0 0 0 0 0 0 0 0 0 0 0 0 0 0 0 0 0 0 0 0
0 0 0 0 0 0 0 0 0 0 0 0 0 0 0 0 0 0 0 0 0 0 0 0 0 0 0 0 0 0 0 0 0 0 0 0 0 0 0 0 0 0 0 0
0 0 0 0 0 0 0 0 0 0 0 0 0 0 0 0 0 0 0 0 0 0 0 0 0 0 0 0 0 0 0 0 0 0 0 0 0 0 0 0 0 0 0 0
0 0 0 0 0 0 0 0 0 0 0 0 0 0 0 0 0 0 0 0 0 0 0 0 0 0 0 0 0 0 0 0 0 0 0 0 0 0 0 0 0 0 0 0
0 0 0 0 0 0 0 0 0 0 0 0 0 0 0 0 0 0 0 0 0 0 0 0 0 0 0 0 0 0 0 0 0 0 0 0 0 0 0 0 0 0 0 0
0 0 0 0 0 0 0 0 0 0 0 0 0 0 0 0 0 0 0 0 0 0 0 0 0 0 0 0 0 0 0 0 0 0 0 0 0 0 0 0 0 0 0 0
0 0 0 0 0 0 0 0 0 0 0 0 0 0 0 0 0 0 0 0 0 0 0 0 0 0 0 0 0 0 0 0 0 0 0 0 0 0 0 0 0 0 0 0
0 0 0 0 0 0 0 0 0 0 0 0 0 0 0 0 0 0 0 0 0 0 0 0 0 0 0 0 0 0 0 0 0 0 0 0 0 0 0 0 0 0 0 0
0 0 0 0 0 0 0 0 0 0 0 0 0 0 0 0 0 0 0 0 0 0 0 0 0 0 0 0 0 0 0 0 0 0 0 0 0 0 0 0 0 0 0 0
0 0 0 0 0 0 0 0 0 0 0 0 0 0 0 0 0 0 0 0 0 0 0 0 0 0 0 0 0 0 0 0 0 0 0 0 0 0 0 0 0 0 0 0
0 0 0 0 0 0 0 0 0 0 0 0 0 0 0 0 0 0 0 0 0 0 0 0 0 0 0 0 0 0 0 0 0 0 0 0 0 0 0 0 0 0 0 0
0 0 0 0 0 0 0 0 0 0 0 0 0 0 0 0 0 0 0 0 0 0 0 0 0 0 0 0 0 0 0 0 0 0 0 0 0 0 0 0 0 0 0 0
0 0 0 0 0 0 0 0 0 0 0 0 0 0 0 0 0 0 0 0 0 0 0 0 0 0 0 0 0 0 0 0 0 0 0 0 0 0 0 0 0 0 0 0
0 0 0 0 0 0 0 0 0 0 0 0 0 0 0 0 0 0 0 0 0 0 0 0 0 0 0 0 0 0 0 0 0 0 0 0 0 0 0 0 0 0 0 0
0 0 0 0 0 0 0 0 0 0 0 0 0 0 0 0 0 0 0 0 0 0 0 0 0 0 0 0 0 0 0 0 0 0 0 0 0 0 0 0 0 0 0 0
0 0 0 0 0 0 0 0 0 0 0 0 0 0 0 0 0 0 0 0 0 0 0 0 0 0 0 0 0 0 0 0 0 0 0 0 0 0 0 0 0 0 0 0
0 0 0 0 0 0 0 0 0 0 0 0 0 0 0 0 0 0 0 0 0 0 0 0 0 0 0 0 0 0 0 0 0 0 0 0 0 0 0 0 0 0 0 0
0 0 0 0 0 0 0 0 0 0 0 0 0 0 0 0 0 0 0 0 0 0 0 0 0 0 0 0 0 0 0 0 0 0 0 0 0 0 0 0 0 0 0 0
0 0 0 0 0 0 0 0 0 0 0 0 0 0 0 0 0 0 0 0 0 0 0 0 0 0 0 0 0 0 0 0 0 0 0 0 0 0 0 0 0 0 0 0
0 0 0 0 0 0 0 0 0 0 0 0 0 0 0 0 0 0 0 0 0 0 0 0 0 0 0 0 0 0 0 0 0 0 0 0 0 0 0 0 0 0 0 0
0 0 0 0 0 0 0 0 0 0 0 0 0 0 0 0 0 0 0 0 0 0 0 0 0 0 0 0 0 0 0 0 0 0 0 0 0 0 0 0 0 0 0 0
0 0 0 0 0 0 0 0 0 0 0 0 0 0 0 0 0 0 0 0 0 0 0 0 0 0 0 0 0 0 0 0 0 0 0 0 0 0 0 0 0 0 0 0
0 0 0 0 0 0 0 0 0 0 0 0 0 0 0 0 0 0 0 0 0 0 0 0 0 0 0 0 0 0 0 0 0 0 0 0 0 0 0 0 0 0 0 0
Wind_Speed
2 2 1 0 1 0 1 0 1 3 3 1 1 2 4 4 5 6 7 8 8 8 7 7 6 6 6 5 4 3 2 2 2 2 2 3 4 5 5 6 7 7 8 7
1 2 1 1 2 2 2 2 3 2 1 1 1 2 3 4 5 6 6 7 7 8 8 8 7 7 6 6 5 4 3 3 2 2 3 3 4 4 5 6 7 7 8 8
1 1 2 3 3 5 3 3 3 4 1 2 1 1 3 4 4 5 6 6 7 7 7 7 8 7 7 6 5 4 4 3 3 3 3 3 3 4 6 6 7 8 8 8
1 1 3 2 2 2 3 2 3 2 1 1 1 1 2 3 3 4 5 6 7 7 7 7 7 7 7 6 5 5 4 4 3 3 3 4 4 5 6 6 7 7 8 8
2 2 3 2 3 3 4 3 4 4 3 3 3 2 1 2 3 4 5 6 6 7 7 7 7 7 7 6 6 5 5 5 4 4 4 5 6 6 6 6 6 6 6 7
3 3 4 2 4 2 3 4 5 5 5 4 4 4 1 1 3 4 5 5 6 6 7 7 7 7 6 6 6 6 7 7 6 5 6 6 6 6 5 6 6 6 6 7
4 4 4 3 5 5 5 1 6 6 5 5 4 1 2 1 2 3 5 5 6 6 6 7 7 7 7 7 7 7 7 7 7 6 6 6 5 5 5 6 6 6 7 7
6 6 5 7 8 7 1 4 5 5 5 4 2 1 1 2 3 4 5 5 6 6 6 6 7 7 7 7 8 8 8 7 7 6 5 4 5 5 6 6 7 7 7 7
6 4 3 5 5 2 3 5 5 5 4 4 3 2 2 2 3 4 5 6 6 6 7 7 6 6 7 8 8 8 8 8 7 6 5 5 5 5 5 6 6 6 6 6
5 7 5 6 5 4 4 4 4 4 4 4 3 2 2 3 3 4 5 6 6 7 7 7 7 7 7 8 8 8 8 8 7 6 5 4 4 4 5 6 6 6 6 6
7 4 4 7 10 8 6 5 5 4 3 3 3 3 3 3 4 4 5 5 6 6 7 8 8 8 8 8 8 8 8 7 6 5 5 5 5 5 6 6 6 6 6 6
8 8 7 6 8 10 9 8 7 6 4 3 3 3 3 4 4 5 5 5 6 7 8 8 8 8 8 8 8 8 7 7 5 5 4 4 4 5 7 8 9 11 10 7
3 4 4 3 6 9 8 7 6 6 4 3 3 3 4 4 4 5 5 6 7 8 8 8 8 8 8 8 7 7 8 7 5 5 5 4 4 4 5 5 9 11 12 13
5 6 5 5 6 8 7 6 5 4 3 3 3 3 3 4 5 6 6 6 7 8 8 8 9 9 8 8 8 8 8 7 6 5 5 5 5 5 4 4 4 4 7 11
9 6 5 5 7 7 6 6 5 5 4 3 3 3 4 5 6 6 6 6 7 8 8 8 8 9 8 7 8 8 7 6 5 5 5 5 5 5 5 5 5 4 3 4
9 6 6 7 8 8 7 7 6 6 5 4 4 4 5 5 6 6 6 6 7 8 8 8 8 8 8 8 8 7 6 7 7 6 5 5 4 4 4 4 4 4 4 3
12 10 9 9 9 9 8 7 6 5 5 5 5 4 5 5 6 7 6 6 7 8 8 8 9 8 8 7 7 6 6 6 7 6 5 5 5 5 5 4 4 4 4 4
10 10 11 10 10 9 8 6 5 5 5 4 4 4 5 6 7 7 7 7 7 8 8 8 8 8 8 7 6 6 6 5 5 5 5 5 5 5 4 4 4 4 3 3
9 8 8 8 7 7 6 6 5 4 3 3 4 5 5 6 6 7 7 7 8 8 7 7 9 8 8 7 7 5 6 6 5 5 5 6 6 4 4 4 4 4 3 3
8 8 8 7 6 6 5 4 4 3 3 3 4 4 5 6 6 6 7 7 6 6 7 8 8 7 7 7 7 5 6 6 6 5 5 5 5 4 4 4 4 4 3 3
10 9 8 8 6 5 4 4 4 3 3 3 4 5 5 6 5 6 6 7 6 6 7 9 7 6 6 7 8 5 5 5 5 5 5 5 5 4 4 4 3 3 3 2
9 8 8 7 6 5 3 3 3 3 3 3 4 4 5 6 6 6 6 6 6 8 7 6 6 8 9 9 6 5 5 5 5 5 4 4 4 4 4 4 3 3 2 2
7 7 7 7 6 4 3 3 2 2 3 3 4 4 5 5 4 5 6 4 5 9 8 6 9 12 13 8 5 5 6 6 5 5 5 4 4 4 4 4 3 3 3 2
7 7 6 5 5 5 4 3 2 2 2 3 3 4 4 4 4 4 5 8 10 11 7 9 13 13 12 6 6 5 5 5 5 5 5 4 4 4 4 4 3 3 3 3
7 6 6 6 5 3 3 2 2 2 2 2 3 3 3 3 4 5 6 7 9 10 7 9 12 12 8 6 6 6 5 5 5 5 4 4 4 4 4 3 3 3 3 3
6 5 4 4 3 2 2 2 1 1 2 2 3 2 3 3 4 5 5 6 8 9 7 6 7 8 6 6 6 6 6 6 5 5 5 4 4 4 4 4 5 4 3 3
5 4 4 3 2 2 2 2 1 2 2 2 3 3 3 4 4 5 6 5 5 6 6 5 6 6 6 6 6 6 5 5 5 4 4 4 4 4 4 4 4 3 3 3
Wind_Direction
46 12 341 267 269 192 148 244 160 134 137 137 49 34 29 33 39 38 31 26 22 19 17 14 13 11 4 356 351 338 317 290 269 252 224 201 188 184 185 184 180 177 175 173
85 36 0 282 258 230 227 220 184 183 216 68 77 56 40 34 31 30 25 18 12 7 3 2 0 356 352 349 343 330 314 300 283 252 228 210 198 187 186 186 182 179 180 177
151 343 277 256 246 216 200 201 206 217 185 133 138 59 24 15 17 16 11 5 0 357 355 351 348 341 338 336 330 322 314 303 285 260 239 222 205 199 197 192 187 187 186 184
157 204 232 68 47 208 198 216 225 229 171 178 152 66 8 355 3 7 0 354 352 349 346 342 339 336 332 328 323 318 312 304 290 267 249 230 215 212 208 200 198 195 192 189
194 229 261 216 184 180 195 225 213 208 190 160 143 171 162 34 5 354 350 346 342 340 336 335 338 336 330 326 323 318 315 308 296 274 254 237 227 221 213 207 206 204 197 192
190 227 236 134 139 163 202 221 180 189 183 174 186 224 146 70 342 342 343 340 336 334 334 335 338 335 329 327 323 320 316 307 296 279 260 247 236 225 217 211 210 204 202 201
211 241 260 139 141 166 208 146 149 179 180 180 203 312 58 354 327 331 331 332 331 330 333 334 333 330 326 325 323 319 311 301 292 279 266 256 244 226 214 208 205 206 205 205
197 221 234 145 162 200 184 108 154 170 176 182 190 198 254 299 317 323 327 331 331 329 328 329 330 326 322 322 321 316 309 300 293 285 274 255 240 228 215 207 206 207 207 207
213 226 56 168 191 160 143 161 169 174 176 180 195 225 262 293 309 320 323 327 327 324 320 322 326 323 317 318 318 313 307 301 296 288 275 258 240 227 216 210 210 207 206 209
241 242 222 212 209 196 188 183 173 173 173 187 213 237 269 289 302 311 316 320 322 319 317 320 324 320 314 314 315 311 307 305 300 291 281 268 250 231 224 218 215 212 211 212
239 240 220 222 213 200 188 181 172 170 181 196 216 246 270 282 291 301 309 313 313 310 310 314 318 316 315 314 312 308 305 301 299 293 286 274 259 245 236 234 227 221 218 211
216 199 194 198 189 186 184 188 185 182 188 203 224 246 262 274 286 294 301 306 306 307 308 311 313 312 314 315 311 307 303 302 298 293 287 279 273 268 244 243 241 237 235 228
207 159 170 139 161 176 185 184 183 189 196 208 223 244 261 276 285 291 296 300 303 306 306 306 307 308 313 314 308 301 297 297 293 288 283 278 273 269 272 255 242 239 236 234
174 145 157 176 176 175 174 170 171 180 196 211 225 247 263 275 282 287 292 300 303 302 301 301 302 304 311 312 307 300 296 290 286 283 279 276 272 269 265 263 261 254 239 235
193 195 178 154 152 158 160 162 174 191 200 216 228 244 260 271 280 288 296 301 301 297 297 300 300 304 312 310 305 300 297 292 291 289 283 277 275 272 267 260 255 256 256 241
174 169 161 162 168 169 172 182 197 207 213 227 238 251 264 274 283 289 293 297 297 297 301 302 299 304 311 307 302 296 291 291 292 292 288 281 275 271 268 262 257 252 247 243
162 175 181 185 185 186 192 199 207 213 219 230 243 259 271 278 283 286 291 294 289 288 291 293 295 302 304 299 295 293 293 294 293 288 284 281 276 273 270 265 260 257 255 244
190 184 181 181 183 187 195 201 207 212 221 233 246 256 262 270 279 289 296 300 296 292 289 289 294 300 298 297 294 289 289 291 292 290 289 285 282 278 275 272 269 265 267 258
181 175 174 175 175 179 185 194 203 211 220 226 239 252 262 270 278 286 292 292 292 295 303 308 306 301 298 297 298 286 284 286 286 284 283 288 287 279 275 272 272 271 267 259
170 167 163 160 160 166 174 179 186 202 215 226 244 259 268 275 281 286 287 283 279 288 300 306 305 300 298 297 297 287 283 282 282 283 283 283 284 285 283 280 277 273 267 257
164 162 159 159 160 162 169 173 184 203 216 226 242 259 272 283 286 286 287 288 294 303 303 302 300 298 297 297 294 286 284 284 284 283 283 283 283 283 285 286 283 279 276 272
163 162 162 160 160 163 165 171 183 200 220 238 252 264 274 281 286 284 273 274 295 309 308 299 298 301 304 301 289 284 282 281 281 280 280 280 280 280 279 280 279 280 277 275
158 160 160 163 164 156 151 165 184 205 228 246 259 267 273 280 284 284 290 295 304 309 306 298 304 308 308 301 288 283 282 282 281 279 278 277 276 276 274 274 273 274 271 269
151 152 149 144 141 149 166 177 194 224 247 262 264 270 277 284 282 269 281 301 308 310 304 305 311 312 310 297 290 286 282 281 280 278 276 274 273 274 273 273 271 270 267 267
145 142 142 149 161 172 174 172 195 227 256 269 279 283 279 275 281 297 301 302 308 311 306 309 313 315 309 297 293 289 285 281 281 280 274 271 270 269 270 271 269 269 267 265
148 152 156 162 161 157 160 175 206 238 267 283 292 295 296 294 292 295 297 302 305 308 308 308 311 313 307 302 297 293 290 290 288 282 276 273 269 267 267 267 267 264 263 263
135 139 142 145 150 157 167 190 222 249 267 282 292 297 304 305 303 305 305 306 308 308 308 308 309 308 305 303 300 296 293 289 286 283 280 275 271 267 264 261 262 261 260 259